Location: Cudham
(51.3000°N, 0.0667°E)
Time: 22:05:41
(UTC+00:00)

Cosmos 1867 - Pass Details

Date: 19 May 2025
Orbit: 775 x 798 km, 65.0° (Epoch: 18 June)

Event Time Altitude Azimuth Distance (km) Brightness Sun altitude
Rises 21:29:30 0° 317° (NW) 3,314 8.8 -11.8°
Reaches altitude 10° 21:31:58 10° 313° (NW) 2,379 7.5 -12.0°
Maximum altitude 21:37:19 58° 236° (SW) 930 3.9 -12.5°
Enters shadow 21:41:23 17° 162° (SSE) 1,903 4.9 -12.8°
